Regional Weather Roundup
Issued by NWS

Home | Current Version | Previous Version | Text Only | Print | Product List | Glossary Off
Versions: 1 2 3 4 5 6 7 8 9 10 11 12 13 14 15 16 17 18 19 20 21 22 23 24 25 26 27 28 29 30 31 32 33 34 35 36 37 38 39 40 41 42 43 44 45 46 47 48 49 50

000
ASUS43 KIND 291309
RWRIN

WEATHER ROUNDUP FOR INDIANA
NATIONAL WEATHER SERVICE INDIANAPOLIS IN
900 AM EDT SUN MAY 29 2016

NOTE: "FAIR" INDICATES FEW OR NO CLOUDS BELOW 12,000 FEET WITH NO
SIGNIFICANT WEATHER AND/OR OBSTRUCTIONS TO VISIBILITY.

* - STATION DOES NOT REPORT WEATHER SUCH AS PRECIPITATION OR FOG.

+ - STATION NOT QUALITY CONTROLLED BY THE NATIONAL WEATHER SERVICE.
    USE DATA WITH CAUTION...ESPECIALLY DEWPOINT AND RELATIVE
    HUMIDITY OBSERVATIONS.

INZ001>003-010>013-019-020-291400-
NORTHWEST INDIANA

CITY           SKY/WX    TMP DP  RH WIND       PRES   REMARKS
GARY /AIRPORT/ MOSUNNY   73  68  83 SW14      30.01F
KNOX *+        SUNNY     70  50  49 SW8       30.03S
LA PORTE +     SUNNY     71  62  73 SW7       30.04S
MICHIGAN CITY+ SUNNY     72  63  73 SW8       30.03R
MONTICELLO +   SUNNY     72  65  77 SW8       30.04R
RENSSELAER +   SUNNY     72  64  78 SW9       30.04R
VALPARAISO     SUNNY     70  62  76 SW10      30.03S

$$

LMZ046-743>745-291400-
SOUTHERN LAKE MICHIGAN

STATION/POSITION TIME  TEMP    WIND        PRES    WAVE
                       AIR SEA DIR/SP/G            HT
                 (UTC) (F)     (DEG/KT/KT) (MB)    (FT)
BURNS HARBOR     1201   67     210/ 12/ 16 1016.6R
MICHIGAN CITY    1200   68     180/ 11/ 15   N/A
5NW MICH CITY    1300   62 57  210/  6/  8   N/A     1

$$

INZ004-005-014>016-021>024-291400-
NORTH CENTRAL INDIANA

CITY           SKY/WX    TMP DP  RH WIND       PRES   REMARKS
ELKHART        PTSUNNY   72  64  78 MISG      30.05R
GOSHEN         SUNNY     73  63  70 SW12      30.04R
LOGANSPORT +   SUNNY     72  66  83 SW13      30.06R
PERU/GRISSOM   SUNNY     73  69  86 SW10      30.05R
ROCHESTER +    MOSUNNY   73  68  83 SW9       30.05S HAZE
SOUTH BEND     SUNNY     70  58  65 SW9       30.04R
WARSAW +       SUNNY     73  64  73 SW7       30.05R

$$

INZ006>009-017-018-025>027-291400-
NORTHEAST INDIANA

CITY           SKY/WX    TMP DP  RH WIND       PRES   REMARKS
ANGOLA *+        N/A     73  66  78 SW9       30.05S
AUBURN +       MOSUNNY   73  64  73 SW6       30.07S
FORT WAYNE     PTSUNNY   75  67  76 SW13      30.07R
HUNTINGTON +   MOSUNNY   73  67  80 SW10      30.06S

$$

INZ028-029-035-036-043>045-051>053-291400-
WEST CENTRAL INDIANA

CITY           SKY/WX    TMP DP  RH WIND       PRES   REMARKS
CRAWFORDSVL +  MOSUNNY   71  69  91 SW8       30.07R
GREENCASTLE +  MOSUNNY   70  70 100 SW3       30.09R
LAFAYETTE      PTSUNNY   73  67  81 VRB7      30.05R
TERRE HAUTE    SUNNY     72  67  84 SW7       30.08R

$$

INZ030>032-037>040-046>048-054>057-064-065-291400-
CENTRAL INDIANA

CITY           SKY/WX    TMP DP  RH WIND       PRES   REMARKS
CP ATTERBURY + SUNNY     72  66  83 S3        30.10R
COLUMBUS       SUNNY     72  68  88 S9        30.09
FISHERS *+     MOSUNNY   73  70  88 W7        30.08R
FRANKFORT +      N/A     74  69  86 SW6       30.08R
GREENWOOD *+   SUNNY     73  66  78 SW5       30.09R
INDIANAPOLIS   MOSUNNY   73  67  81 SW10      30.06S
-EAGLE CREEK   CLOUDY    72  66  81 SW5       30.07R
KOKOMO *+      SUNNY     73  64  73 SW12      30.06S
MARION +       MOSUNNY   71  66  84 SW10      30.08S HAZE
SHELBYVILLE    SUNNY     74  66  76 S9        30.08R
ZIONSVILLE +   MOSUNNY   72  67  84 SW9       30.08S

$$

INZ033-034-041-042-049-050-058-059-291400-
EAST CENTRAL INDIANA

CITY           SKY/WX    TMP DP  RH WIND       PRES   REMARKS
MUNCIE         MOSUNNY   75  66  73 SW8       30.08R

$$

INZ060-061-067>069-081>083-085>088-291400-
SOUTHWEST INDIANA

CITY           SKY/WX    TMP DP  RH WIND       PRES   REMARKS
EVANSVILLE     SUNNY     73  66  78 SW6       30.11R
HUNTINGBURG *+ SUNNY     72  66  83 SW9       30.11R
WASHINGTON +   SUNNY     73  70  88 SW8       30.08S

$$

INZ062-063-066-070>080-084-089>092-291400-
SOUTH CENTRAL AND SOUTHEAST INDIANA

CITY           SKY/WX    TMP DP  RH WIND       PRES   REMARKS
BEDFORD +      SUNNY     73  73 100 S5        30.10R
BLOOMINGTON    SUNNY     72  66  81 SW6       30.09R
MADISON *+     SUNNY     73  64  73 S5        30.14R
NORTH VERNON + MOSUNNY   73  72  94 CALM      30.12R
SEYMOUR +      SUNNY     75  66  73 S7        30.10R

$$





USA.gov is the U.S. government's official web portal to all federal, state and local government web resources and services.